Regional Weather Roundup
Issued by NWS

Home | Current Version | Previous Version | Graphics & Text | Print | Product List | Glossary On
Versions: 1 2 3 4 5 6 7 8 9 10 11 12 13 14 15 16 17 18 19 20 21 22 23 24 25 26 27 28 29 30 31 32 33 34 35 36 37 38 39 40 41 42 43 44 45 46 47 48 49 50
000
ASUS45 KBOU 201507
RWRCO

WEATHER ROUNDUP FOR COLORADO
NATIONAL WEATHER SERVICE DENVER/BOULDER CO
900 AM MDT WED AUG 20 2014

NOTE: "FAIR" INDICATES FEW OR NO CLOUDS BELOW 12000 FEET WITH NO
SIGNIFICANT WEATHER AND/OR OBSTRUCTIONS TO VISIBILITY.

COZ001>005-013-030-031-201600-
...NORTHWEST COLORADO...

CITY           SKY/WX    TMP DP  RH WIND       PRES   REMARKS
CRAIG          PTSUNNY   62  57  83 CALM      30.09R
HAYDEN         CLOUDY    57  52  82 CALM      30.11R
MEEKER         CLOUDY    62  53  72 SW8       30.11R
MOUNT WERNER   NOT AVBL
STEAMBOAT SPGS CLOUDY    55  53  93 CALM      30.12S
WALDEN         CLOUDY    54  46  76 S9        30.17R
$$

COZ006>008-011-201600-
...WEST CENTRAL VALLEYS...

CITY           SKY/WX    TMP DP  RH WIND       PRES   REMARKS
GRAND JUNCTION MOSUNNY   64  61  90 CALM      30.04R
MONTROSE       MOSUNNY   66  58  75 SE7       30.10F
EAGLE          PTSUNNY   61  57  88 CALM      30.14S
RIFLE          PTSUNNY   64  58  80 CALM      30.08R
DELTA          RAIN      69  60  72 NE6       30.08S
NUCLA          MOSUNNY   68  50  52 SW3       30.15R
$$

COZ017>023-064>068-201600-
...SOUTHWEST COLORADO...

CITY           SKY/WX    TMP DP  RH WIND       PRES   REMARKS
DURANGO        MOSUNNY   64  51  62 MISG      30.17R
CORTEZ         SUNNY     66  56  70 N5        30.14S
PAGOSA SPRINGS CLOUDY    56  55  96 CALM      30.23R
TELLURIDE      SUNNY     55  48  76 E5        30.30R
WOLF CREEK PAS NOT AVBL
$$

COZ009-010-012-014-032>034-037-058>063-201600-
...CENTRAL COLORADO...

CITY           SKY/WX    TMP DP  RH WIND       PRES   REMARKS
ASPEN          MOSUNNY   57  53  86 S3        30.19R
BUENA VISTA    MOSUNNY   60  46  60 SE3       30.17S
COPPER MTN     LGT RAIN  46  41  81 W13G18    30.43S VSB<1/4
BERTHOUD PASS  FOG       37  37 100 NW22G35   30.43F VSB<1/4
COTTONWOOD PAS MOSUNNY   57  43  58 NW6G17    30.29S
GUNNISON       PTSUNNY   61  48  63 W5        30.22R
KREMMLING      MOSUNNY   59  50  72 CALM      30.17S
LEADVILLE      LGT RAIN  51  45  79 N9        30.29R
MONARCH PASS   LGT RAIN  43  41  93 W29G36    30.53S VSB<1/4
SALIDA         MOSUNNY   69  49  49 SW9G23    30.21S
SUNLIGHT       CLOUDY    48  46  93 CALM      30.37S FOG
WILKERSON PASS NOT AVBL
$$

COZ069>075-201600-
...SAN LUIS VALLEY/SANGRE DE CRISTO MOUNTAINS...

CITY           SKY/WX    TMP DP  RH WIND       PRES   REMARKS
ALAMOSA        CLOUDY    64  48  56 S12       30.16S
LA VETA PASS   NOT AVBL
SAGUACHE       CLOUDY    63  46  55 NW8       30.19S
$$

COZ035-036-038>040-201600-
...NORTHERN COLORADO FRONT RANGE...

CITY           SKY/WX    TMP DP  RH WIND       PRES   REMARKS
DENVER INTL AP MOSUNNY   71  53  52 VRB3      29.96R
DMNS CITY PARK   N/A     71  52  51 S5        29.96S
AURORA         MOSUNNY   68  52  56 CALM      29.99S
FRONT RANGE AP NOT AVBL
ERIE MUNI ARPT MOSUNNY   74  50  43 SE6       29.94S
BOULDER MUN AP SUNNY     73  50  43 SE5       29.94R
CENTENNIAL     MOSUNNY   70  50  49 NW3       29.99S
BROOMFIELD     MOSUNNY   72  50  46 VRB3      29.98S
FORT COLLINS   SUNNY     72  54  53 SE7       29.93S
LONGMONT       SUNNY     76  54  46 SE5       29.95R
$$

COZ041-046-047-076>085-087-088-201600-
...PIKES PEAK/PALMER DIVIDE AND SOUTHERN FOOTHILLS...

CITY           SKY/WX    TMP DP  RH WIND       PRES   REMARKS
COLO. SPRINGS  PTSUNNY   71  49  45 S3        30.01S
A. F. ACADEMY  MOSUNNY   73  47  39 E1        30.03S
ELLICOTT       MOSUNNY   72  49  44 SW5       30.00R
FALCON         MOSUNNY   72  46  39 CALM      30.06S
FORT CARSON    CLOUDY    70  50  49 NE2       29.98F
LIMON          CLOUDY    75  49  39 N8        29.95S
MONUMENT HILL  MOSUNNY   72  46  40 SW10      30.05S
TRINIDAD       CLOUDY    72  48  42 W9        29.99S
$$

COZ042>045-048>051-090-091-201600-
...NORTHEAST COLORADO...

CITY           SKY/WX    TMP DP  RH WIND       PRES   REMARKS
GREELEY ARPT   SUNNY     72  52  49 E3        29.92S
AKRON          PTSUNNY   68  61  78 W8        29.91R
BURLINGTON     PTSUNNY   82  54  37 W14       29.86R
WRAY             N/A     70  63  79 NW6       29.84R
STERLING       PTSUNNY   73  63  68 CALM      29.86S
HOLYOKE        NOT AVBL
FORT MORGAN    PTSUNNY   72  57  58 S3        29.91S
$$

COZ086-089-092>099-201600-
...SOUTHEAST COLORADO...

CITY           SKY/WX    TMP DP  RH WIND       PRES   REMARKS
PUEBLO         PTSUNNY   72  53  51 W5        29.91S
LA JUNTA       MOSUNNY   79  54  41 W7        29.87S
LAMAR          PTSUNNY   77  58  51 NW3       29.83S
SPRINGFIELD      N/A     82  55  39 SW14      29.89F
$$



USA.gov is the U.S. government's official web portal to all federal, state and local government web resources and services.